Location: Township of Marena
(38.1747°N, 99.6798°W)
Time: 02:11:16
(UTC+00:00)

Cosmos 1315 Rocket - Pass Details

Date: 26 October 2020
Orbit: 530 x 567 km, 81.2° (Epoch: 24 November)

Event Time Altitude Azimuth Distance (km) Brightness Sun altitude
Rises 01:55:35 0° 200° (SSW) 2,663 6.5 -25.9°
Reaches altitude 10° 01:57:46 10° 206° (SSW) 1,781 5.6 -26.3°
Enters shadow 02:00:39 40° 240° (WSW) 805 3.9 -26.9°
